User: anonymous   Login
Location: Unspecified
(0.0000°N, 0.0000°E)
Time: 05:23:53
(UTC+00:00)
Language:

NOSS 2-2 (E) - Orbit

View from above orbital plane
View from above orbital plane
View from above satellite
View from above satellite

Ground track
Ground track

The orbit data is extracted from the following two-line orbital elements,

1 21809U 91076E   17081.79075937 0.00000010  00000-0  34052-5 0    00
2 21809  63.3500 321.7234 0737000  21.3533 338.6467 13.41333233    08
Epoch (UTC): 22 March 2017 18:58:41
Eccentricity: 0.0737000
inclination: 63.3500°
perigee height: 553 km
apogee height: 1656 km
right ascension of ascending node: 321.7234°
argument of perigee: 21.3533°
revolutions per day: 13.41333233
mean anomaly at epoch: 338.6467°
orbit number at epoch: 0

The dashed part of the orbit path shows where the satellite is in the earth's shadow,  

DLR